Location: Sungai Dangang
(2.7500°N, 113.8333°E)
Time: 04:17:53
(UTC+00:00)

BREEZE-M TANK - Pass Details

Date: 16 May 2021
Orbit: 606 x 24680 km, 45.3° (Epoch: 14 June)

Event Time Altitude Azimuth Distance (km) Brightness Sun altitude
Rises 20:07:25 0° 319° (NW) 12,101 9.0 -30.2°
Reaches altitude 10° 20:20:19 10° 322° (NW) 7,691 7.9 -27.3°
Maximum altitude 20:36:28 62° 41° (NE) 1,386 4.4 -23.6°
Drops below altitude 10° 20:40:56 10° 123° (ESE) 2,292 5.9 -22.5°
Sets 20:42:29 0° 127° (SE) 2,998 6.5 -22.2°
